Temperature
28 25 24 25 26 27 27 27 27 27 28 27 26 25 25 25 25 24 24 24 23 23 23 23 23 22 22 22 21 21 20 20 20 20 19 19 19 19 19 19 19 18 18 18
25 24 26 27 28 28 28 27 27 27 28 27 26 26 26 25 25 25 24 24 23 23 23 23 23 22 22 22 21 21 21 20 20 20 20 19 19 19 19 19 18 18 18 18
25 26 28 28 28 28 27 27 27 27 27 27 26 25 25 25 25 25 24 24 24 23 23 23 23 22 22 22 22 21 21 20 20 20 19 19 19 19 18 18 18 18 18 18
25 27 28 28 28 28 27 28 28 28 26 24 25 23 24 24 24 24 25 24 24 24 23 23 23 22 22 22 22 22 21 21 20 20 19 19 19 19 19 19 19 18 18 18
25 27 27 28 28 29 28 29 28 28 26 24 24 23 23 23 23 24 24 24 24 24 23 23 23 23 22 22 22 22 21 21 20 20 20 19 19 19 19 18 18 18 18 18
26 27 28 28 29 29 29 27 26 23 22 23 24 24 23 23 24 24 24 25 24 24 23 23 23 23 22 22 22 22 21 21 20 20 20 19 19 19 19 19 19 18 18 18
26 27 28 29 28 27 27 24 23 23 22 22 23 24 23 24 25 25 25 25 24 24 23 23 23 22 22 22 22 22 21 21 21 20 20 20 19 19 19 19 19 19 18 18
24 24 27 28 27 26 26 23 22 23 22 22 23 23 23 25 25 26 25 25 25 24 23 23 23 23 22 22 22 22 21 21 21 20 20 20 19 19 19 19 19 19 19 19
23 24 27 28 28 27 26 24 22 21 22 22 22 23 24 25 25 25 25 25 24 24 24 23 23 23 22 22 22 22 22 21 21 20 20 20 19 19 19 19 19 18 18 18
24 24 25 27 28 27 26 24 21 21 22 22 23 23 23 24 24 24 24 24 24 24 24 23 23 23 22 22 22 22 22 21 21 21 20 20 19 19 19 19 18 18 18 18
23 23 24 25 26 25 25 24 21 19 20 21 22 22 24 23 23 23 23 24 24 24 24 23 23 23 22 22 22 22 21 21 21 20 20 20 19 19 19 19 18 18 18 18
22 20 21 23 24 26 25 24 21 21 21 19 20 21 24 23 23 23 23 24 24 24 24 24 23 23 22 22 22 21 21 21 21 21 20 20 19 19 19 18 18 18 18 18
22 20 20 21 22 23 24 24 22 20 19 19 20 22 23 23 23 24 24 24 24 24 24 23 23 23 22 22 22 21 21 21 21 20 20 20 19 19 19 18 18 18 18 18
22 19 20 21 21 22 23 24 23 21 20 20 21 22 23 22 22 22 23 23 23 23 23 23 23 22 22 22 22 21 21 21 21 20 20 19 19 19 19 18 18 18 18 18
20 20 21 21 22 23 24 24 24 23 22 21 22 22 22 22 21 22 23 22 22 22 22 22 22 22 22 22 21 21 21 21 20 20 19 19 19 18 18 18 18 18 17 17
18 19 20 21 22 23 23 24 24 24 24 23 22 22 22 22 22 22 22 22 22 22 22 22 22 22 22 22 21 21 21 21 20 20 20 19 19 18 18 18 18 17 17 17
17 18 18 18 20 21 21 23 24 24 24 23 22 21 21 21 21 21 22 22 22 22 22 22 22 22 21 21 21 21 21 20 20 20 19 19 18 18 18 18 17 17 17 17
17 17 16 17 19 20 20 21 23 22 22 21 21 21 21 20 21 22 22 22 22 21 21 21 21 21 21 21 20 20 20 20 20 19 19 19 18 18 17 17 17 17 16 16
17 17 16 16 17 19 20 22 22 21 20 20 20 20 20 20 20 20 21 21 21 21 21 21 21 21 21 20 20 20 19 19 19 19 18 18 18 17 17 17 16 16 16 16
16 16 16 16 18 18 19 21 22 21 19 19 19 19 19 19 18 18 20 20 20 20 20 21 20 20 20 20 20 19 19 18 18 18 18 17 17 17 17 16 16 16 16 16
16 16 16 16 17 17 19 21 21 19 18 19 19 19 19 18 18 19 19 19 19 20 20 20 20 20 19 19 19 18 18 18 18 17 17 17 17 16 16 16 16 16 16 15
15 15 15 15 16 17 18 19 18 17 18 19 19 19 19 19 18 18 19 19 19 19 19 19 19 19 18 18 18 18 18 17 17 17 17 16 16 16 16 15 15 15 15 15
15 15 14 15 15 17 18 18 18 19 18 18 18 19 19 18 18 18 18 18 18 18 18 18 18 18 18 17 17 17 17 17 17 16 16 16 15 15 15 15 15 15 14 14
15 15 14 15 16 17 17 18 18 18 18 18 18 18 18 18 17 17 17 17 17 17 17 17 17 17 17 17 17 17 17 16 16 16 15 15 15 15 15 14 14 14 14 14
14 14 14 14 15 16 17 17 17 17 18 18 18 18 18 18 17 17 16 16 16 16 16 16 16 17 16 16 16 16 16 16 15 15 15 15 15 14 14 14 14 14 14 14
14 14 13 14 15 14 15 17 17 17 17 17 17 17 17 17 16 16 16 16 16 16 16 16 16 16 16 15 15 15 15 15 15 14 14 14 14 14 14 13 13 13 13 13
Wind_Speed
2 2 5 8 8 8 7 5 5 6 5 5 6 7 12 14 12 12 12 13 14 14 12 13 14 14 13 11 11 11 10 9 7 4 4 3 4 4 3 4 7 8 8 8
3 6 11 9 9 7 6 5 5 4 3 4 5 5 10 13 16 17 16 15 14 13 12 13 13 13 13 13 12 11 11 10 8 6 5 3 3 3 4 4 5 8 8 7
8 10 8 7 8 7 7 6 6 4 2 1 5 1 4 7 8 10 13 14 14 17 17 16 16 14 13 14 13 12 11 10 9 7 4 3 2 1 1 2 3 5 7 7
7 9 8 8 8 6 7 7 5 4 2 2 4 3 7 9 8 10 12 14 16 17 16 15 15 16 16 15 13 11 11 10 9 8 7 6 5 4 4 3 3 3 5 6
7 6 6 7 9 6 7 6 4 3 3 1 0 3 7 5 7 11 14 16 17 17 18 18 17 17 16 15 14 12 11 9 8 8 8 7 5 4 3 3 4 3 3 4
9 7 5 7 8 6 4 2 4 5 5 0 5 5 6 7 13 13 13 15 15 15 16 16 15 13 12 13 13 12 11 10 9 9 8 8 7 6 5 4 5 4 2 2
8 8 6 4 4 7 2 4 3 4 4 6 4 3 8 9 11 14 14 15 16 15 15 14 15 14 13 14 14 12 12 10 10 9 9 8 8 7 7 6 6 5 3 3
4 7 5 3 5 5 3 8 7 5 5 5 3 4 7 6 7 9 11 13 15 15 15 16 16 16 15 15 14 14 13 11 10 10 9 8 8 6 5 6 6 6 5 4
5 7 6 4 4 5 2 3 8 7 3 2 4 4 5 1 2 6 9 10 12 13 15 15 14 14 14 15 14 14 14 12 12 11 9 8 7 7 6 6 5 5 4 4
6 4 7 5 2 1 6 5 5 5 4 3 4 4 5 5 2 3 7 9 11 12 13 14 13 13 13 13 12 11 11 11 10 10 9 8 7 7 6 6 6 5 4 4
4 4 6 4 2 5 1 2 4 4 5 6 4 7 7 8 6 6 7 9 10 11 13 13 13 12 11 11 11 10 10 9 9 9 8 7 7 7 6 6 6 6 5 5
2 4 4 8 7 5 5 6 7 5 4 5 5 8 5 6 5 6 6 7 8 10 11 12 13 12 11 11 11 11 10 10 10 9 8 7 6 6 6 6 6 5 5 5
2 5 1 7 7 5 1 1 4 5 4 5 5 7 3 2 3 4 7 8 7 8 10 9 10 11 12 11 11 11 10 10 9 8 8 7 6 7 6 6 5 5 5 5
3 4 6 8 8 4 4 5 1 4 3 5 7 7 5 4 4 4 6 8 9 9 10 10 9 9 10 10 10 10 10 10 9 8 8 8 8 7 7 6 5 5 5 5
4 2 3 6 7 4 5 7 5 4 7 8 8 9 10 10 9 8 8 8 9 8 8 9 9 9 9 9 9 9 9 9 9 9 8 8 7 7 6 5 5 5 5 5
3 1 1 4 5 4 6 7 7 7 6 6 5 6 6 6 5 6 8 10 9 9 9 8 9 9 10 10 10 9 8 9 9 9 9 8 7 6 6 6 5 5 4 4
1 2 2 4 6 4 6 6 5 5 4 5 7 7 5 4 5 8 8 10 10 10 8 8 8 8 8 8 8 9 9 8 8 8 8 8 8 7 7 7 6 6 6 5
5 2 2 1 2 6 9 6 2 1 1 1 2 4 6 5 3 3 6 8 8 8 8 7 6 6 5 6 5 6 7 7 8 8 8 8 8 7 7 6 6 6 5 5
7 6 3 3 3 7 7 5 2 2 3 1 3 4 5 7 6 3 1 6 7 8 7 6 6 6 5 6 5 6 6 7 7 7 7 7 8 8 7 7 6 5 5 4
3 5 5 3 3 6 6 6 3 4 1 2 4 6 6 6 3 3 3 4 6 6 5 5 5 5 5 4 6 6 6 6 6 6 6 7 7 8 8 8 6 4 4 5
4 2 3 4 5 7 6 6 3 2 5 2 2 5 5 4 5 5 4 3 5 6 5 6 6 6 5 5 7 6 5 6 5 5 4 4 5 6 6 5 5 4 4 4
2 1 2 3 4 7 4 3 2 4 3 1 1 2 3 4 4 5 5 4 5 5 5 6 6 4 3 5 6 5 5 5 5 5 4 4 4 4 4 4 4 4 4 4
2 5 4 5 6 6 2 1 2 2 2 1 0 1 4 4 4 4 4 4 4 5 5 5 6 5 3 3 4 5 3 3 4 4 4 4 3 3 4 4 4 4 4 4
4 1 1 1 3 2 1 1 2 1 1 0 2 3 4 4 4 4 5 3 3 4 4 4 6 5 3 2 3 4 3 4 5 5 4 4 4 4 3 3 4 4 4 4
5 2 1 3 4 4 4 2 1 2 3 3 3 3 4 7 5 5 4 3 3 3 3 4 5 5 4 4 4 4 4 5 5 4 4 4 4 4 3 2 2 4 4 5
5 4 4 6 7 3 5 3 1 1 1 2 4 3 3 6 6 4 3 3 4 4 3 3 5 6 5 5 4 3 4 6 6 4 4 3 3 3 3 3 2 3 1 2
Wind_Direction
267 88 246 242 227 220 232 243 253 245 216 156 176 185 182 181 180 175 177 177 175 177 172 166 165 164 159 158 159 162 162 165 162 161 161 160 173 175 170 177 180 181 183 182
345 262 243 242 252 246 242 248 253 268 256 163 170 192 188 182 188 184 182 184 180 172 170 167 166 167 166 166 167 166 168 170 170 172 172 169 166 173 182 184 182 187 185 188
226 246 253 256 262 270 259 233 214 211 264 66 113 18 200 205 194 192 191 186 185 180 178 174 172 173 171 172 173 173 171 170 172 166 151 140 116 106 146 177 187 191 189 191
249 253 265 270 265 245 260 246 214 196 122 243 140 199 247 209 199 198 194 187 187 186 181 178 176 176 179 180 176 170 169 167 171 166 163 160 167 177 195 189 186 188 191 190
254 251 250 261 260 247 237 242 219 211 146 113 23 151 267 211 205 206 198 193 191 186 181 181 182 182 182 179 175 172 169 170 170 167 170 169 173 180 175 166 167 180 194 194
251 257 231 237 265 257 244 27 22 44 75 258 231 173 250 211 204 203 199 193 191 187 183 182 181 178 178 177 175 172 170 175 173 170 171 172 172 174 165 173 181 191 198 204
284 278 266 254 293 311 41 87 22 348 357 253 244 194 239 226 202 195 188 190 190 185 182 179 178 177 176 178 177 177 175 177 177 175 177 177 178 176 178 182 187 186 193 207
234 277 264 244 203 224 217 143 164 204 226 269 309 235 255 236 194 182 182 182 184 182 181 179 181 179 177 177 175 176 179 180 180 182 184 183 180 182 187 185 182 186 195 202
193 249 269 249 226 171 189 191 173 154 197 246 277 280 309 323 127 162 166 167 174 178 179 179 176 174 175 176 177 178 179 180 184 186 183 184 184 183 184 179 179 185 191 191
169 244 281 286 328 276 158 160 93 117 160 239 273 255 227 239 199 166 159 164 175 177 173 170 168 168 171 173 172 172 173 181 183 185 187 190 188 187 182 176 182 185 191 192
152 183 288 326 222 222 174 111 111 129 161 170 237 259 219 202 194 185 179 167 165 170 167 168 167 168 167 167 168 170 174 175 177 181 182 184 185 185 177 179 183 185 186 185
150 141 250 265 261 211 183 179 153 159 229 186 191 258 247 186 185 174 168 157 148 155 160 162 163 164 167 170 173 174 176 179 183 181 177 181 179 178 181 187 188 184 186 185
103 111 11 327 333 356 44 178 162 149 150 181 193 255 270 181 156 160 155 146 141 143 144 149 160 167 171 173 175 177 179 181 181 178 178 180 178 180 187 191 190 186 185 188
114 123 173 210 231 254 281 283 245 132 172 217 218 226 248 220 172 168 158 149 146 142 142 146 156 162 166 172 176 176 180 180 175 174 177 183 188 189 191 189 186 186 184 186
80 153 213 234 245 252 267 271 261 227 202 203 225 215 221 206 184 173 161 146 140 137 144 149 154 161 161 164 170 174 176 176 174 172 178 188 189 184 181 181 185 185 187 193
41 134 354 312 301 301 288 277 257 244 227 214 212 245 227 196 163 164 162 156 152 152 157 156 152 157 163 168 171 171 174 176 172 175 185 187 180 180 183 188 185 184 193 199
3 102 63 279 299 337 273 248 250 255 251 204 211 221 178 165 166 175 171 164 162 164 161 156 155 157 165 171 170 173 176 171 171 179 185 185 185 187 191 190 183 190 196 199
170 144 157 225 356 249 247 260 229 145 334 342 173 180 166 165 166 164 161 156 160 158 148 146 146 144 147 154 163 171 167 169 176 182 186 184 182 188 188 184 189 194 192 196
172 162 158 159 217 271 288 297 278 141 328 350 126 129 121 117 78 39 122 141 148 148 146 148 151 146 141 147 155 158 160 164 174 184 187 187 184 184 184 188 193 192 187 194
91 131 148 168 196 236 256 295 300 104 334 311 123 127 126 112 133 226 197 136 127 129 133 138 136 125 131 144 143 148 158 163 181 190 191 188 182 181 189 193 194 193 186 192
9 26 162 190 219 252 273 309 20 130 223 254 138 145 144 169 194 192 167 139 133 133 129 128 126 125 141 143 137 146 162 180 190 187 181 178 181 184 185 187 187 180 179 177
193 187 221 183 208 250 305 25 105 220 234 186 110 132 123 133 127 140 138 132 135 127 125 131 126 122 129 138 139 145 174 188 177 169 166 173 180 182 176 169 174 167 165 164
197 198 200 201 222 252 272 190 225 185 161 182 141 134 126 122 133 139 131 126 130 139 136 136 133 128 125 135 142 152 177 165 153 150 157 163 159 159 162 163 163 154 154 162
292 308 121 284 267 288 332 4 5 57 107 114 132 127 117 124 123 121 122 123 128 127 134 137 135 133 131 132 130 140 138 131 129 137 152 156 151 153 150 156 163 160 165 166
268 316 295 266 279 343 343 342 40 28 38 59 66 94 118 120 119 122 123 135 139 129 126 134 143 139 129 114 111 116 122 121 122 129 139 143 145 143 138 137 159 169 183 181
248 220 221 242 242 218 255 256 160 78 38 109 96 63 89 121 128 123 129 143 143 138 126 128 127 124 120 116 114 115 120 122 124 126 134 146 150 146 141 129 82 43 112 161
Height
1481 1489 1495 1490 1488 1489 1491 1494 1497 1490 1481 1485 1491 1494 1494 1494 1496 1498 1501 1504 1505 1507 1510 1513 1515 1518 1520 1522 1524 1526 1528 1530 1532 1533 1534 1536 1537 1538 1540 1541 1542 1543 1544 1545
1488 1492 1483 1480 1480 1483 1487 1493 1494 1488 1481 1484 1490 1492 1489 1491 1491 1492 1495 1500 1502 1506 1509 1510 1513 1516 1517 1520 1522 1524 1526 1528 1530 1532 1533 1535 1536 1538 1539 1540 1541 1542 1543 1544
1491 1483 1476 1478 1480 1483 1486 1489 1489 1490 1484 1483 1490 1499 1494 1490 1490 1492 1494 1495 1499 1501 1504 1506 1509 1512 1515 1517 1519 1522 1524 1526 1529 1531 1533 1535 1536 1537 1538 1539 1540 1541 1542 1543
1483 1475 1475 1477 1479 1480 1489 1477 1478 1482 1493 1501 1496 1518 1500 1491 1491 1491 1492 1493 1494 1498 1501 1503 1506 1508 1511 1514 1517 1520 1522 1525 1527 1529 1531 1533 1534 1535 1536 1538 1539 1540 1541 1542
1481 1473 1475 1478 1474 1473 1477 1470 1474 1479 1489 1501 1499 1511 1505 1491 1493 1488 1487 1488 1490 1493 1496 1499 1502 1505 1508 1512 1515 1518 1521 1523 1525 1527 1529 1531 1532 1534 1535 1537 1538 1538 1539 1540
1474 1468 1468 1469 1465 1466 1467 1473 1479 1487 1498 1514 1502 1507 1507 1491 1485 1481 1481 1483 1485 1489 1493 1495 1499 1503 1506 1510 1513 1516 1518 1520 1523 1525 1527 1529 1530 1532 1533 1534 1535 1536 1537 1538
1477 1469 1464 1463 1469 1467 1471 1491 1512 1516 1523 1518 1499 1501 1498 1476 1471 1471 1474 1477 1481 1484 1489 1492 1496 1499 1503 1506 1510 1513 1515 1518 1520 1523 1525 1526 1528 1530 1531 1532 1533 1534 1535 1535
1490 1487 1467 1461 1467 1473 1474 1488 1514 1525 1526 1516 1500 1501 1486 1468 1465 1466 1468 1471 1475 1480 1484 1488 1491 1494 1498 1502 1506 1509 1512 1514 1517 1520 1522 1524 1526 1527 1529 1530 1531 1532 1532 1533
1487 1484 1462 1457 1457 1463 1474 1483 1485 1504 1509 1515 1508 1493 1478 1467 1466 1466 1468 1470 1473 1477 1480 1484 1488 1492 1495 1499 1502 1505 1508 1511 1514 1517 1519 1522 1524 1525 1526 1527 1529 1530 1530 1531
1472 1480 1467 1458 1456 1459 1464 1472 1491 1504 1517 1522 1510 1500 1492 1476 1471 1468 1468 1469 1471 1474 1477 1481 1485 1489 1493 1496 1499 1503 1506 1508 1511 1514 1517 1519 1521 1522 1524 1525 1526 1527 1528 1529
1465 1479 1474 1466 1467 1470 1469 1475 1487 1501 1504 1517 1518 1503 1470 1469 1467 1467 1466 1467 1468 1471 1473 1478 1482 1486 1491 1495 1498 1501 1503 1506 1509 1511 1513 1516 1518 1520 1521 1522 1523 1524 1526 1526
1464 1477 1484 1473 1460 1456 1461 1469 1481 1499 1503 1505 1509 1497 1460 1461 1462 1463 1465 1466 1467 1470 1472 1476 1480 1484 1489 1492 1495 1498 1501 1503 1506 1508 1511 1513 1515 1516 1518 1519 1521 1522 1523 1524
1463 1478 1492 1487 1477 1466 1465 1465 1471 1481 1493 1502 1506 1491 1460 1460 1461 1462 1463 1464 1466 1468 1471 1475 1478 1481 1485 1488 1492 1495 1498 1501 1503 1506 1508 1510 1512 1513 1515 1516 1518 1519 1520 1521
1459 1476 1487 1492 1485 1474 1470 1466 1466 1478 1493 1494 1488 1479 1466 1462 1462 1462 1463 1463 1464 1466 1469 1472 1475 1479 1482 1486 1489 1492 1495 1498 1500 1503 1504 1506 1508 1510 1512 1513 1515 1516 1517 1518
1461 1474 1472 1471 1466 1463 1463 1463 1462 1468 1473 1480 1475 1470 1463 1459 1459 1460 1461 1463 1465 1467 1469 1471 1473 1476 1479 1483 1487 1490 1492 1495 1497 1499 1501 1502 1505 1507 1509 1510 1511 1512 1513 1514
1465 1472 1472 1471 1463 1462 1462 1458 1457 1458 1458 1462 1463 1464 1455 1454 1456 1459 1460 1461 1463 1466 1468 1469 1472 1474 1477 1480 1483 1486 1489 1492 1494 1496 1497 1499 1501 1503 1504 1506 1507 1508 1510 1511
1469 1473 1480 1482 1469 1466 1471 1457 1454 1454 1452 1455 1461 1458 1453 1455 1456 1457 1458 1460 1462 1465 1467 1469 1471 1473 1475 1478 1481 1483 1486 1488 1490 1492 1494 1496 1497 1499 1501 1502 1504 1505 1506 1507
1467 1474 1481 1483 1477 1484 1466 1448 1446 1450 1451 1449 1449 1449 1449 1452 1455 1457 1458 1459 1461 1463 1465 1467 1470 1472 1474 1476 1479 1481 1483 1486 1487 1489 1490 1492 1493 1495 1497 1498 1500 1501 1502 1503
1456 1467 1479 1485 1485 1476 1459 1448 1446 1451 1455 1449 1449 1450 1451 1452 1455 1458 1458 1458 1460 1461 1463 1465 1468 1469 1471 1473 1476 1478 1480 1482 1484 1485 1487 1488 1490 1491 1493 1494 1496 1497 1498 1499
1455 1460 1473 1480 1482 1481 1462 1446 1442 1447 1459 1450 1447 1449 1450 1451 1460 1460 1458 1458 1459 1461 1462 1463 1465 1467 1469 1470 1473 1475 1476 1478 1480 1481 1483 1484 1486 1487 1489 1490 1492 1493 1494 1495
1466 1468 1472 1476 1478 1469 1453 1445 1442 1460 1461 1451 1447 1447 1448 1450 1453 1455 1456 1457 1458 1459 1460 1461 1463 1464 1466 1468 1470 1471 1473 1474 1476 1478 1479 1481 1482 1484 1485 1487 1488 1489 1490 1491
1469 1473 1474 1475 1477 1471 1449 1446 1451 1454 1449 1449 1447 1447 1447 1447 1449 1452 1453 1455 1457 1458 1458 1459 1461 1462 1464 1466 1467 1468 1470 1471 1473 1474 1475 1476 1478 1480 1481 1483 1484 1485 1487 1487
1464 1464 1465 1466 1464 1452 1448 1447 1448 1447 1448 1448 1447 1447 1447 1447 1449 1450 1452 1454 1455 1456 1457 1458 1459 1460 1462 1463 1464 1465 1466 1468 1469 1470 1471 1472 1475 1476 1478 1479 1480 1481 1483 1484
1460 1456 1458 1458 1453 1449 1447 1446 1446 1446 1446 1446 1447 1447 1446 1446 1448 1449 1450 1452 1454 1455 1456 1457 1457 1458 1459 1460 1461 1462 1463 1465 1465 1466 1467 1469 1471 1473 1474 1475 1476 1477 1478 1480
1459 1457 1458 1457 1451 1448 1446 1446 1445 1445 1445 1445 1445 1446 1445 1446 1448 1449 1449 1451 1453 1453 1454 1454 1455 1455 1456 1458 1459 1460 1461 1462 1462 1464 1465 1466 1468 1470 1471 1472 1474 1475 1476 1477
1454 1455 1457 1454 1448 1448 1446 1444 1444 1444 1444 1444 1445 1446 1446 1447 1448 1448 1449 1450 1451 1452 1453 1453 1453 1454 1455 1457 1457 1458 1459 1459 1460 1461 1463 1464 1466 1467 1469 1470 1472 1474 1475 1476